Regional Weather Roundup
Issued by NWS

Home | Current Version | Previous Version | Text Only | Print | Product List | Glossary Off
Versions: 1 2 3 4 5 6 7 8 9 10 11 12 13 14 15 16 17 18 19 20 21 22 23 24 25 26 27 28 29 30 31 32 33 34 35 36 37 38 39 40 41 42 43 44 45 46 47 48 49 50

000
ASUS45 KTFX 281019
RWRMT
MONTANA HOURLY WEATHER ROUNDUP
NATIONAL WEATHER SERVICE GREAT FALLS MT
419 AM MDT THU AUG 28 2014

NOTE: "FAIR" INDICATES FEW OR NO CLOUDS BELOW 12000 FEET WITH NO
SIGNIFICANT WEATHER AND/OR OBSTRUCTIONS TO VISIBILITY.

* THESE STATIONS ARE NOT UNDER NWS QUALITY CONTROL. THEY DO NOT
   REPORT WEATHER SUCH AS PRECIPITATION OR FOG.

MTZ001>007-043-281100-
WEST OF THE DIVIDE
CITY           SKY/WX    TMP DP  RH WIND       PRES   REMARKS
KALISPELL      CLEAR     48  46  93 CALM      29.99S
MISSOULA       CLEAR     54  46  74 N3        30.07S
BUTTE          CLEAR     46  43  89 CALM      30.20S
MULLAN PASS    CLEAR     59  41  51 VRB6      30.16F
* LINCOLN      N/A       43  42  96 SW1        N/A
* LOOKOUT PASS N/A       58  45  62 N/A        N/A
* POLSON       N/A       60  42  52 N/A        N/A
* RONAN APT    CLEAR     52  45  77 N/A        N/A
* SEELEY LAKE  N/A       44  42  93 NE1        N/A
* THOMP F APT  CLEAR     50  40  69 NE4        N/A
$$

MTZ008-052>055-281100-
SOUTHWEST MONTANA
CITY           SKY/WX    TMP DP  RH WIND       PRES   REMARKS
BOZEMAN        CLEAR     48  43  83 SE8       30.13S
DILLON         CLEAR     50  43  77 SW12      30.17S
W YELLOWSTONE  CLEAR     37  36  96 CALM      30.30R
* THREE FORKS  CLEAR     48  32  54 N/A        N/A
* BOULDER HILL N/A       55  37  51 S9         N/A
* MONIDA PASS  N/A       47  39  74 W2         N/A
* RAYNOLDS PAS N/A       45  32  60 SW6        N/A
* WHITEHALL    N/A       51  46  83 N2         N/A
* WISE RIVER   N/A       45  39  80 W2         N/A
$$

MTZ009>010-012-014-046-048-049-054-281100-
EAST SLOPES AND CENTRAL MONTANA
CITY           SKY/WX    TMP DP  RH WIND       PRES   REMARKS
CUT BANK       PTCLDY    55  45  69 NW5       29.98S
GREAT FALLS    CLEAR     57  46  67 SW10      29.99S
HELENA         CLEAR     57  46  67 CALM      30.07F
MALMSTROM AFB  CLEAR     61  48  62 SW14      30.00S
* CONRAD       PTCLDY    55  52  90 N/A        N/A
* EAST GLACIER N/A       57  42  57 VRB3G9     N/A
* MONARCH      N/A       51  40  66 S10        N/A
* PENDROY      N/A       62  42  48 W7         N/A
* ROGERS PASS  N/A       55  42  62 NW3        N/A
* SAINT MARY   N/A       66  42  42 S4G11      N/A
* SWEET GRASS  N/A       64  44  48 W11        N/A
* WHITE SULPH  N/A       51  44  77 NE7G12     N/A
$$

MTZ011-013-016-021-035-040-045-047-050-051-281100-
NORTH CENTRAL MONTANA
CITY           SKY/WX    TMP DP  RH WIND       PRES   REMARKS
HAVRE          CLEAR     57  52  83 SW7       29.91S
LEWISTOWN      CLEAR     52  45  77 SE7       30.04F
* CHINOOK      CLEAR     54  54 100 CALM      29.91R
* FORT BENTON  CLEAR     57  48  72 CALM      29.95S
* CHESTER      N/A       54  48  80 N/A        N/A
* DENTON       N/A       54  48  80 S4         N/A
* GEYSER       N/A       59  44  58 SW5        N/A
* JUDITH GAP   N/A       56  45  67 SE7        N/A
* LOMA         N/A       61  49  65 W9         N/A
$$

MTZ017>020-022>027-061-062-281100-
NORTHEAST MONTANA
CITY           SKY/WX    TMP DP  RH WIND       PRES   REMARKS
GLASGOW        CLEAR     57  54  90 SE9       29.89R
GLENDIVE       CLEAR     57  55  93 SW5       29.95S
JORDAN         CLEAR     54  54 100 W6        29.94R
SIDNEY         CLEAR     57  55  93 CALM      29.92S
WOLF POINT     CLEAR     54  50  86 CALM      29.90S
* BEAVER HILL  N/A       65  58  78 S12G19     N/A
* CIRCLE       N/A       55  52  90 N/A        N/A
* LINDSAY DVD  N/A       55  53  93 NW3        N/A
* NAVAJO       N/A       57  48  72 SW8        N/A
* SACO         N/A       56  50  80 E2G7       N/A
$$

MTZ028>042-056>058-281100-
SOUTHCENTRAL AND SOUTHEAST MONTANA
CITY           SKY/WX    TMP DP  RH WIND       PRES   REMARKS
BAKER          FAIR      55  55 100 SE3       29.98F
BILLINGS       FAIR      64  46  52 SW18      30.03F
LIVINGSTON     CLEAR     48  43  83 CALM      30.11F
MILES CITY     CLEAR     59  55  87 S8        29.95S
* LAUREL APT   CLEAR     55  45  69 N/A        N/A
* ROUNDUP APT  CLEAR     57  46  67 SW7        N/A
* ALZADA       N/A       55  53  93 N/A        N/A
* HYSHAM       N/A       63  47  56 W6         N/A
* LAME DEER    N/A       65  49  56 W8         N/A
* REED POINT   N/A       50  47  89 NE1        N/A
* ROSCOE HILL  N/A       62  30  30 S6         N/A
$$

REGIONAL REPORTS...DAKOTAS
CITY           SKY/WX    TMP DP  RH WIND       PRES   REMARKS
WILLISTON      CLEAR     57  55  93 S5        29.90S
DICKINSON      PTCLDY    57  55  93 SE7       29.95F
BEACH          N/A       57  57 100 S8        29.96F
CROSBY         CLEAR     59  59 100 S12       29.88F
TIOGA          FAIR      54  54 100 NE3       29.94F
WATFORD CITY   PTCLDY    59  57  93 SE3       29.90S
BISMARCK       PTCLDY    59  57  93 E3        29.96F
GRAND FORKS    MOCLDY    61  57  87 SE7       29.99F
FARGO          CLOUDY    66  59  78 SE13      30.00F
BUFFALO SD     PTCLDY    55  54  96 SE6       29.93F
RAPID CITY     CLOUDY    63  61  93 CALM      30.02R
$$

REGIONAL REPORTS...WYOMING/IDAHO/WASHINGTON
CITY           SKY/WX    TMP DP  RH WIND       PRES   REMARKS
GILLETTE       PTCLDY    57  52  83 CALM      30.06S
SHERIDAN       CLEAR     52  46  80 SW3       30.05S
CODY           CLEAR     55  46  72 CALM      30.14S
YELLOWSTONE LA PTCLDY    37  36  96 CALM      30.38S
SALMON         CLEAR     48  46  93 CALM      30.16R
MULLAN PASS    CLEAR     59  41  51 VRB6      30.16S
SAND POINT     PTCLDY    54  54 100 CALM      29.94S
SPOKANE        FAIR      68  45  44 S10       29.94S
$$

REGIONAL REPORTS...ALBERTA
CITY           SKY/WX    TMP DP  RH WIND       PRES   REMARKS
CALGARY        MOCLDY    55  50  83 N13       30.00R
LETHBRIDGE     CLEAR     59  48  67 W6        29.91R
MEDICINE HAT   CLEAR     57  52  83 SW10      29.85S
EDMONTON       MOCLDY    54  52  93 W10       29.94F
WATERTON GATE  N/A       64  45  50 SW12       N/A
CARDSTON       N/A       61  48  62 W3         N/A
MILK RIVER     N/A       52  48  86 W5         N/A
$$

REGIONAL REPORTS...SASKATCHEWAN
CITY           SKY/WX    TMP DP  RH WIND       PRES   REMARKS
SWIFT CURRENT  CLEAR     57  52  83 S10       29.85S
MOOSE JAW      N/A       55  54  96 NW5       29.83F
REGINA         N/A       54  54 100 S5        29.82F
VAL MARIE      N/A       52  50  93 CALM       N/A
ASSINIBOIA     N/A       57  50  78 W2         N/A
CORONACH       N/A       52  50  93 SE3        N/A

$$




USA.gov is the U.S. government's official web portal to all federal, state and local government web resources and services.